Flag for Canada Weather past 2 weeks in Chatham-Kent, Ontario, Canada

Now
23 °F

Cold.


Feels Like: 15 °F
Forecast: N/A
Wind: 7 mph from Southwest

Location: Erieau

Current Time: Jan 28, 2015 at 3:55:09 PM

Latest Report: Jan 28, 2015 at 3:00 PM


Visibility: N/A

Pressure: 30.34 "Hg

Humidity: 80%

Dew point: 18 °F

Location of Chatham-KentLocation

Historic Weather in Chatham-Kent — Graph

°F

Chatham-Kent temperature yesterday

Maximum temperature yesterday: 21 °F (at 4:00 PM)
Minimum temperature yesterday: 14 °F (at 8:00 AM)
Average temperature yesterday: 18 °F

Past Weeks' High & Low Weather Summary

 TemperatureHumidityPressure
High39 °F (Jan 18, 12:00 AM)99% (Jan 18, 7:00 PM)30.69 "Hg (Jan 18, 7:00 PM)
Low0 °F (Jan 14, 7:00 AM)57% (Jan 16, 2:00 PM)29.55 "Hg (Jan 24, 3:00 PM)
Average23 °F82%30.06 "Hg
* Reported Jan 13 2:00 PM — Jan 28 2:00 PM, Chatham-Kent, Weather by CustomWeather, © 2014

Note: Actual official high and low records may vary slightly from our data, if they occured in-between our weather recording intervals... More about our weather records

Advertising

Chatham-Kent weather history for previous 24 hours

 ConditionsComfort  
Time TempWeatherWind HumidityBarometerVisibility
2:00 PM
Jan 28
23 °FCold.6 mph78%30.35 "HgN/A
1:00 PM24 °FCold.5 mph80%30.36 "HgN/A
12:00 PM23 °FCold.3 mph76%30.37 "HgN/A
11:00 AM20 °FCold.1 mph78%30.38 "HgN/A
10:00 AM17 °FCold.2 mph75%30.39 "HgN/A
9:00 AM12 °FCold.5 mph81%30.39 "HgN/A
8:00 AM10 °FFrigid.6 mph86%30.38 "HgN/A
7:00 AM11 °FCold.6 mph87%30.36 "HgN/A
6:00 AM11 °FCold.5 mph87%30.32 "HgN/A
5:00 AM11 °FCold.2 mph87%30.29 "HgN/A
4:00 AM11 °FCold.2 mph84%30.28 "HgN/A
3:00 AM10 °FCold.2 mph77%30.27 "HgN/A
2:00 AM13 °FCold.3 mph69%30.25 "HgN/A
1:00 AM12 °FCold.3 mph73%30.23 "HgN/A
12:00 AM13 °FCold.5 mph78%30.21 "HgN/A
11:00 PM
Jan 27
15 °FCold.3 mph78%30.22 "HgN/A
10:00 PM15 °FCold.2 mph81%30.21 "HgN/A
9:00 PM17 °FCold.5 mph80%30.21 "HgN/A
8:00 PM20 °FCold.5 mph80%30.20 "HgN/A
7:00 PM20 °FCold.5 mph77%30.19 "HgN/A
6:00 PM20 °FCold.8 mph77%30.18 "HgN/A
5:00 PM20 °FCold.8 mph77%30.16 "HgN/A
4:00 PM21 °FCold.5 mph77%30.13 "HgN/A
3:00 PM21 °FCold.6 mph63%30.11 "HgN/A
Weather by CustomWeather, © 2014

See weather overviewHow to use our weather pages